Regional Weather Roundup
Issued by NWS Charleston, SC

Home | Current Version | Previous Version | Text Only | Print | Product List | Glossary On
Versions: 1 2 3 4 5 6 7 8 9 10 11 12 13 14 15 16 17 18 19 20 21 22 23 24 25 26 27 28 29 30 31 32 33 34 35 36 37 38 39 40 41 42 43 44 45 46 47 48 49 50
000
ASUS42 KCHS 051227
RWRCHS

REGIONAL WEATHER ROUNDUP
NATIONAL WEATHER SERVICE CHARLESTON SC
700 AM EST MON DEC 05 2016

NOTE: "FAIR" INDICATES FEW OR NO CLOUDS BELOW 12,000 FEET WITH NO
SIGNIFICANT WEATHER AND/OR OBSTRUCTIONS TO VISIBILITY.

NOT ALL STATIONS ARE QUALITY CONTROLLED. USE DATA WITH CAUTION...
ESPECIALLY DEWPOINT OBSERVATIONS.

SCZ027-030-031-034>040-042>050-051300-
...SOUTHEAST SOUTH CAROLINA...

CITY           SKY/WX    TMP DP  RH WIND       PRES   REMARKS
N CHARLESTON   MOCLDY    57  54  89 N6        29.95S FOG
6HR MIN TEMP:  57; 6HR MAX TEMP:  69; 6HR PCP:  0.08;

WATERFRONT PRK   N/A     67  65  93 SW6       29.92F
MOUNT PLEASANT PTSUNNY   61  59  94 NW5       29.95R FOG
JOHNS ISLAND   PTSUNNY   66  64  94 VRB5      29.94R FOG
PINOPOLIS        N/A     52  52 100 N6        29.88F
MONCKS CORNER  CLOUDY    50  48  93 N7G17     29.98R
SUMMERVILLE    CLOUDY   N/A N/A N/A N8        29.99R
BEAUFORT MCAS  MOCLDY    64  63  96 S12G21    29.92F
6HR MIN TEMP:  58; 6HR MAX TEMP:  69; 6HR PCP:  0.10;

BEAUFORT ARPT  FAIR      64  63  94 S14       29.91F
HILTON HEAD IS DRIZZLE   66  64  94 S10       29.95F
WALTERBORO     CLOUDY    52 N/A N/A N3        29.98S HAZE
ALLENDALE      CLOUDY    48  48 100 N9        29.99R FOG

...SOUTHERN MIDLANDS AND PEE DEE...

CITY           SKY/WX    TMP DP  RH WIND       PRES   REMARKS
GEORGETOWN     CLOUDY    52  52 100 NW5       29.97
KINGSTREE      DRIZZLE   45  43  93 NW6       30.01R
ORANGEBURG     CLOUDY    46  45  96 N10       29.99S FOG
6HR MIN TEMP:  46; 6HR MAX TEMP:  47; 6HR PCP:  0.23;

BARNWELL       NOT AVBL
AIKEN          CLOUDY    43  41  93 CALM      30.04R
MANNING        NOT AVBL
COLUMBIA       CLOUDY    46  43  89 NW5       30.02R
6HR MIN TEMP:  45; 6HR MAX TEMP:  46; 6HR PCP:  0.44;

SUMTER         CLOUDY    45  43  93 NE5       29.97S
                                      6HR PCP:  0.41;

FLORENCE       CLOUDY    46  45  96 N6        30.00S
6HR MIN TEMP:  45; 6HR MAX TEMP:  46; 6HR PCP:  0.96;

MYRTLE BEACH   RAIN      54  48  82 NW8       29.98R FOG
N MYRTLE BEACH HVY RAIN  52  52 100 N8        29.96R FOG
6HR MIN TEMP:  52; 6HR MAX TEMP:  65;


$$

GAZ063-065-086>088-099>101-113>116-118-119-134>141-150-051300-
...SOUTHEAST GEORGIA...

CITY           SKY/WX    TMP DP  RH WIND       PRES   REMARKS
SAVANNAH ARPT  LGT RAIN  65  63  93 S16       29.93F FOG
6HR MIN TEMP:  63; 6HR MAX TEMP:  70; 6HR PCP:  0.17;

HUNTER AAF     CLOUDY    65  65 100 SE6       29.91F
6HR MIN TEMP:  65; 6HR MAX TEMP:  70; 6HR PCP:  0.07;

FORT STEWART   CLOUDY    64  64 100 CALM      29.90F
6HR MIN TEMP:  64; 6HR MAX TEMP:  68; 6HR PCP:  0.08;

STATESBORO     CLOUDY    51  51 100 N8        29.97R FOG
SYLVANIA       CLOUDY   N/A N/A N/A N6        29.98R FOG
CLAXTON        CLOUDY   N/A N/A N/A CALM      29.94R HAZE

...CSRA...CENTRAL AND FAR SOUTHEAST GEORGIA...

CITY           SKY/WX    TMP DP  RH WIND       PRES   REMARKS
THOMSON        CLOUDY    46  46 100 CALM      30.07R
AUGUSTA-BUSH   CLOUDY    47  44  90 N5        30.02R
6HR MIN TEMP:  47; 6HR MAX TEMP:  48; 6HR PCP:  0.17;

AUGUSTA-DANIEL CLOUDY    46  42  86 CALM      30.02R
SWAINSBORO     HVY RAIN  48  46  93 NW9       30.01R
VIDALIA        CLOUDY    52  52 100 N8        29.96R FOG
EASTMAN        HVY RAIN  50  50  99 N7        30.02R
HAZLEHURST     CLOUDY    57  57 100 NW5       29.93R FOG
ALMA           CLOUDY    66  66 100 S12       29.92F
6HR MIN TEMP:  63; 6HR MAX TEMP:  66; 6HR PCP:  0.18;

WAYCROSS       MOCLDY    68  68 100 SW10      29.94S
JESUP          FAIR      68  68 100 SW8       29.93F
BAXLEY         CLOUDY    68  68 100 SW8       29.93R
BRUNSWICK      LGT RAIN  70  68  94 S14       29.97F
SAINT SIMONS   CLOUDY    68  65  90 S7        29.98S
6HR MIN TEMP:  67; 6HR MAX TEMP:  70;


$$

SCZ027-028-034-036>038-045-046-048>050-GAZ119-141-051300-
...LAKE AND SUPPLEMENTAL COASTAL OBSERVATIONS...

STATION/POSITION TIME  TEMP    WIND        PRES    WAVE   SWELL
                       AIR SEA DIR/SP/G            HT/PER HT/PER/DIR
                 (UTC) (F)     (DEG/KT/KT) (MB)    (FT/S) (FT/S/D)
WINYAH BAY       1145   54     310/  7     1014.0S
LAKE MURRAY      1150   44     350/  1/  4 1015.9R
ACE BASIN NERRS  1145   59        CALM     1013.0F
FORT PULASKI     1200   65 62  200/  4/  6 1014.3
SAPELO ISLAND    1200   66     190/  7     1015.0

$$

ANZ835-935-AMZ111-154-330-350-352-354-370-450-454-472-051300-
...C-MAN AND BUOY OBSERVATIONS...

STATION/POSITION TIME  TEMP    WIND        PRES    WAVE   SWELL
                       AIR SEA DIR/SP/G            HT/PER HT/PER/DIR
                 (UTC) (F)     (DEG/KT/KT) (MB)    (FT/S) (FT/S/D)
BUOY 41004       1150   74 74  220/ 21/ 25 1013.3F   6/ 6   2/250/13
BUOY 41008       1150   67 65  190/ 12/ 14 1014.7F   4/ 6   2/ 90/ 6
FOLLY BEACH CMAN 1200   63     210/ 14/ 15 1013.8F
CAPERS NEARSHORE 1108   63 62  240/  8/ 12 1014.2R
FRIPP NEARSHORE  1208   64 61  230/ 12/ 17 1014.0S


STATION/POSITION TIME  TEMP    WIND        PRES    WAVE   SWELL
                       AIR SEA DIR/SP/G            HT/PER HT/PER/DIR
                 (UTC) (F)     (DEG/KT/KT) (MB)    (FT/S) (FT/S/D)
5E ST. MARYS GA  1200      65                N/A     3/ 5
FRYING PAN BUOY  1210   73 74  260/ 21/ 29 1013.3
BUOY 41025       1150   71 74  210/ 25/ 31 1011.7F   6/ 6   2/ 70/ 8
CAPE LOOKOUT NC  1200   62     280/ 13/ 16 1012.7R
BUOY 41002       1150   71 73  190/ 19/ 21 1017.4F   4/ 4   2/350/10
BUOY 41010       NOT AVBL
ST AUGUSTINE FL  1200   67 68  210/  3/  4 1016.7R


$$




USA.gov is the U.S. government's official web portal to all federal, state and local government web resources and services.